This demonstration page uses our WeatherBlox Daily Observations layout. Learn more.

Left ArrowRight Arrow

39.12711, -84.51439

Hourly Observations for June 27, 2021

Temp ( °F °C ) Dew Point ( °F °C ) Humidity (%) Winds ( mph kmh ) Pressure ( in mb ) Visibility ( mi km ) Precip ( " mm )
12:53 am 00:53 Clear 71 21.7 66 18.9 84 84 N N/A 30.04 1017 10 16 N/A
1:53 am 01:53 Clear 70 21.1 66 18.9 87 87 N N/A 30.04 1017 10 16 N/A
2:53 am 02:53 Clear 70 21.1 64 17.8 82 82 SSW 6 9 30.04 1017 10 16 N/A
3:53 am 03:53 Clear 72 22.2 65 18.3 79 79 SSW 7 11 30.03 1017 10 16 N/A
4:53 am 04:53 Clear 71 21.7 64 17.8 79 79 SW 3 6 30.03 1017 10 16 N/A
5:53 am 05:53 Clear 69 20.6 64 17.8 84 84 S 7 11 30.03 1017 10 16 N/A
6:53 am 06:53 Sunny 69 20.6 65 18.3 87 87 S 6 9 30.05 1018 10 16 N/A
7:53 am 07:53 Sunny 73 22.8 67 19.4 81 81 S 8 13 30.06 1018 10 16 N/A
8:53 am 08:53 Sunny 78 25.6 67 19.4 69 69 SSW 10 17 30.08 1019 10 16 N/A
9:53 am 09:53 Sunny 81 27.2 69 20.6 67 67 SSW 9 15 30.08 1019 10 16 N/A
10:53 am 10:53 Sunny 83 28.3 69 20.6 63 63 SW 14 22 30.09 1019 10 16 N/A
11:53 am 11:53 Mostly Sunny 84 28.9 70 21.1 63 63 SSW 16 26 30.09 1019 10 16 N/A
12:53 pm 12:53 Partly Cloudy 86 30 70 21.1 59 59 SSW 10 17 30.09 1019 10 16 N/A
1:53 pm 13:53 Partly Cloudy 87 30.6 71 21.7 59 59 SSW 14 22 30.08 1019 10 16 N/A
2:53 pm 14:53 Mostly Sunny 87 30.6 71 21.7 59 59 S 10 17 30.06 1018 10 16 N/A
3:53 pm 15:53 Mostly Cloudy 86 30 70 21.1 59 59 S 12 19 30.05 1018 10 16 N/A
4:53 pm 16:53 Mostly Sunny 89 31.7 71 21.7 55 55 S 10 17 30.04 1017 10 16 N/A
5:53 pm 17:53 Cloudy 85 29.4 71 21.7 63 63 S 8 13 30.04 1017 10 16 N/A
6:53 pm 18:53 Sunny 86 30 69 20.6 57 57 SSW 10 17 30.04 1017 10 16 N/A
7:53 pm 19:53 Sunny 85 29.4 70 21.1 61 61 S 8 13 30.04 1017 10 16 N/A
8:53 pm 20:53 Sunny 81 27.2 70 21.1 69 69 S 5 7 30.06 1018 10 16 N/A
9:53 pm 21:53 Clear 78 25.6 69 20.6 74 74 N N/A 30.08 1019 10 16 N/A
10:53 pm 22:53 Clear 76 24.4 69 20.6 79 79 N N/A 30.10 1019 10 16 N/A
11:53 pm 23:53 Clear 73 22.8 69 20.6 87 87 N N/A 30.11 1020 10 16 N/A

Powered by AerisWeather